Theta_e
292 288 287 287 290 291 289 290 291 285 286 284 283 282 282 284 284 285 285 286 286 288 288 290 290 289 291 292 294 294 290 290 291 292 293 293 294 294 294 294 294 294 296 297 297 297 297 297 299 300 302 303 305 305 305 305 305 305 304 304 304 303 303 302 303 303 303 302 302 303 302 301 299 299 299 298 299 299 299 300 300 300 301 302 301 300
289 287 287 290 292 289 289 287 285 286 285 287 284 286 285 284 286 287 290 288 286 290 285 285 286 288 289 291 293 293 290 292 293 293 293 294 294 295 294 295 295 295 294 293 295 295 296 297 298 300 301 303 304 305 305 304 305 305 304 306 304 302 302 303 304 304 305 305 305 305 300 298 297 296 297 296 297 296 296 296 297 298 299 300 299 298
287 287 290 292 288 287 286 287 286 288 287 284 287 284 285 285 284 287 287 286 287 288 288 287 287 290 291 292 293 293 294 295 295 296 297 297 296 295 295 295 295 294 295 294 295 295 295 296 297 299 301 303 305 305 305 305 305 304 304 305 303 303 303 303 303 303 301 300 301 301 297 296 294 293 293 293 293 294 294 294 294 296 297 297 296 296
286 285 291 288 287 288 285 284 286 286 286 285 283 285 286 283 286 285 285 286 289 288 286 284 287 290 291 292 293 295 296 295 295 295 295 296 296 297 297 296 294 294 294 294 294 294 294 295 297 299 301 303 305 304 304 304 304 304 304 303 302 302 302 302 301 298 296 295 295 295 294 293 293 292 293 292 292 293 294 292 292 293 295 295 295 295
288 290 289 288 289 290 286 285 286 286 286 284 286 285 285 285 285 287 286 285 285 287 285 287 288 291 292 292 292 293 289 291 295 295 295 295 295 296 295 294 295 295 295 295 294 294 293 294 296 298 301 303 303 304 304 304 304 304 304 304 303 302 302 301 297 295 295 293 292 292 292 293 292 293 292 293 291 291 291 291 292 291 292 293 293 293
288 288 287 288 287 286 285 285 285 287 284 282 283 288 288 287 287 284 285 287 286 283 284 286 285 282 282 287 290 292 289 292 291 292 294 295 296 294 293 294 294 295 295 295 295 294 294 294 296 298 301 302 303 304 304 305 304 304 303 302 302 302 301 297 295 295 295 295 295 292 295 294 294 291 293 294 293 290 292 290 290 290 291 291 292 291
288 289 289 287 287 286 286 285 284 288 286 285 285 286 289 287 286 286 285 288 282 282 286 285 285 283 286 290 290 289 287 292 294 292 294 295 295 293 294 295 294 294 293 293 294 294 294 294 295 297 300 302 302 304 304 304 304 304 302 302 302 301 299 296 295 295 295 295 296 300 301 301 300 298 295 293 293 292 289 289 288 288 289 290 290 289
287 288 286 286 286 285 285 285 287 288 286 283 284 284 286 286 286 285 286 287 284 283 285 285 283 284 286 287 291 292 292 293 293 295 297 298 296 294 294 294 294 293 293 294 294 294 294 294 295 296 299 302 303 303 303 303 303 303 302 301 302 300 298 296 295 295 296 295 296 297 299 300 301 300 297 291 289 289 288 288 287 288 287 288 288 288
288 286 287 287 285 285 286 287 286 290 287 284 286 284 285 286 285 284 286 283 283 283 283 283 286 285 283 285 287 287 289 291 292 295 297 297 295 294 295 294 294 293 293 293 293 293 293 294 295 297 299 302 303 302 302 302 302 303 302 301 300 298 297 295 295 295 296 297 297 298 298 297 292 291 290 289 289 288 288 287 287 287 286 286 286 286
287 288 289 290 288 286 286 285 287 291 289 286 284 285 284 283 283 282 282 285 282 281 282 283 286 281 286 284 287 285 289 289 292 295 297 297 295 295 295 294 292 291 291 292 293 294 294 294 295 297 301 302 303 303 302 302 302 302 301 299 298 297 296 295 294 295 295 296 297 296 296 294 290 289 287 288 287 287 287 286 286 286 286 286 286 285
289 290 290 289 289 288 286 285 285 288 287 287 286 288 286 283 282 281 281 280 281 278 285 284 286 286 283 285 288 289 290 292 295 294 294 293 293 293 292 292 291 290 290 291 292 292 293 294 295 298 300 302 303 302 301 300 301 301 300 299 299 297 295 295 294 295 295 296 296 296 294 292 290 290 287 286 286 286 286 286 285 286 285 285 285 285
289 289 289 289 288 287 289 288 286 285 286 289 288 284 288 286 280 280 274 277 277 278 282 282 284 285 281 282 284 289 288 287 290 293 293 292 292 293 291 289 289 289 290 290 291 291 292 292 294 297 299 301 302 301 300 299 300 299 299 298 298 295 294 294 294 294 295 294 295 295 293 291 290 288 289 289 286 286 286 286 285 285 285 284 284 284
286 287 286 290 289 291 287 288 287 285 289 288 287 288 283 276 273 274 272 277 275 279 281 281 282 284 284 289 285 287 292 293 291 292 294 294 293 293 292 291 289 288 289 290 290 291 291 292 293 295 298 300 301 300 300 298 298 299 298 298 298 295 294 293 294 294 294 293 293 293 291 290 289 290 292 292 287 287 287 286 285 284 284 284 284 283
283 285 287 288 290 290 293 289 285 285 288 286 288 284 279 273 274 271 269 267 270 277 280 282 283 283 284 288 293 295 297 297 294 293 293 294 295 295 293 291 288 288 289 290 290 291 291 292 293 296 298 300 300 300 299 298 297 298 297 297 297 296 294 293 293 293 293 293 293 292 291 290 289 290 289 289 288 287 287 286 285 285 285 284 285 284
277 279 284 289 288 291 293 294 292 288 288 289 286 289 285 279 273 271 271 275 279 277 277 278 277 278 279 286 287 292 293 288 289 291 291 290 291 292 289 287 286 287 288 289 290 290 291 292 293 295 297 299 300 299 299 297 297 297 297 296 296 295 293 293 293 293 292 292 292 291 290 289 289 288 288 288 288 287 286 286 286 286 286 285 285 285
283 282 281 289 288 291 292 291 289 287 288 286 285 285 281 284 280 279 274 271 270 272 274 273 282 281 286 286 288 288 288 289 289 288 287 290 291 290 290 289 289 289 289 289 289 290 291 292 293 295 297 299 299 299 299 298 297 296 296 295 295 294 293 293 293 292 292 291 291 290 289 289 289 288 287 287 287 287 287 286 286 285 285 285 285 284
280 279 284 286 287 289 291 288 291 289 285 285 287 284 286 285 284 274 274 276 274 271 280 274 281 284 286 290 292 295 293 292 290 290 288 290 291 289 291 293 290 289 289 289 289 290 290 291 292 294 296 298 299 299 299 298 297 295 295 294 294 293 293 293 292 292 291 289 289 289 289 288 287 286 286 286 286 285 286 286 285 285 284 284 284 283
282 279 285 285 288 288 287 287 287 287 287 286 281 285 286 286 284 283 278 273 273 275 278 276 280 284 282 285 285 288 288 292 292 293 293 292 289 290 294 295 294 291 289 289 289 289 290 291 292 293 295 297 298 299 299 298 297 295 295 294 294 293 291 292 292 291 290 288 288 288 288 287 287 286 286 286 285 285 285 284 284 284 283 283 283 283
288 282 283 284 284 286 286 289 290 288 288 286 283 287 289 282 280 281 276 275 270 271 275 276 277 280 284 287 287 286 286 289 291 291 289 291 290 290 291 291 290 288 287 287 288 288 289 290 291 292 294 296 297 298 299 299 297 295 294 294 294 293 292 292 292 291 289 289 288 288 288 287 286 286 286 285 285 284 284 283 283 283 283 283 283 282
288 283 281 285 285 286 287 288 284 285 289 287 289 288 287 284 275 278 283 275 279 272 269 277 274 285 287 286 288 291 289 290 291 289 291 292 291 290 289 289 288 287 287 287 288 288 289 290 291 292 293 294 295 297 298 298 297 295 295 293 293 292 292 291 291 290 289 288 288 287 287 286 286 285 285 285 284 283 283 283 283 282 282 282 282 282
288 285 278 283 284 286 284 287 286 288 286 285 286 284 286 282 284 281 279 279 279 268 267 270 279 285 289 288 288 292 292 292 291 292 293 292 290 288 288 288 288 287 287 287 288 288 288 289 290 290 292 293 293 295 296 297 296 295 294 293 293 291 290 290 290 289 288 287 287 286 285 285 284 284 284 283 283 283 283 282 283 282 282 282 282 282
285 282 282 282 282 283 284 284 287 290 292 290 290 287 289 284 281 278 279 279 270 276 278 272 280 287 288 287 292 291 292 292 292 295 294 293 290 288 289 288 287 287 287 287 288 288 288 289 289 289 290 290 291 291 292 295 295 294 294 293 292 291 290 289 289 288 288 286 286 286 285 284 284 284 283 283 283 282 282 282 282 282 282 282 282 282
292 285 284 280 284 286 285 286 283 284 287 286 286 285 288 287 285 279 276 279 273 279 276 275 273 285 289 289 290 290 290 292 291 289 292 294 291 288 288 288 287 287 287 287 287 288 288 288 289 289 289 290 290 291 291 291 293 294 294 293 291 290 289 289 288 288 287 286 285 284 284 283 283 283 282 282 282 282 282 282 281 281 281 281 281 281
294 288 285 286 284 284 285 284 283 284 287 287 285 282 286 288 288 288 286 283 283 276 277 275 274 287 287 286 288 287 285 284 285 287 291 291 288 287 286 288 288 286 286 286 286 287 287 287 287 288 288 289 289 290 289 290 291 292 293 292 291 290 288 287 287 287 286 285 284 284 283 282 282 282 282 282 282 281 281 281 281 281 281 281 281 280
288 287 288 284 280 284 283 286 286 285 285 282 282 286 289 290 288 281 282 280 280 281 285 281 279 286 288 283 283 284 285 286 288 287 286 290 289 287 287 287 286 286 285 285 285 286 286 286 286 288 288 289 289 290 289 289 290 290 291 291 290 290 288 287 286 285 285 284 283 283 282 282 282 282 281 281 281 281 281 280 280 281 280 280 280 280
291 289 287 283 280 278 278 279 281 282 284 283 280 284 286 289 288 285 285 282 282 286 283 283 284 291 286 287 288 284 285 287 287 286 284 286 289 288 286 285 286 285 285 285 285 285 285 286 287 287 287 288 289 289 289 289 289 289 289 289 289 289 287 286 285 285 284 284 283 282 282 281 281 281 281 281 281 280 280 280 280 280 280 280 280 279
286 288 290 288 286 284 286 288 286 286 283 283 285 286 287 288 290 290 288 286 283 287 285 286 289 290 291 289 287 288 285 289 292 289 288 289 288 286 286 286 286 286 286 285 285 286 285 285 286 287 287 288 288 289 289 288 288 288 288 288 288 288 287 286 285 284 284 283 283 282 282 281 281 281 281 281 281 280 280 280 280 280 280 280 280 279
286 288 289 290 290 291 291 291 287 290 286 288 287 286 288 288 288 287 287 286 290 286 283 289 290 288 290 294 291 288 288 288 288 289 289 290 290 288 288 286 287 285 285 285 285 285 285 286 286 286 286 287 288 288 288 288 288 288 288 287 287 286 287 286 285 284 284 284 283 283 282 282 282 281 281 281 280 280 280 280 280 280 280 280 279 279
288 288 290 290 289 291 292 291 288 288 289 289 288 288 286 288 287 286 287 290 291 286 285 290 291 288 291 294 295 293 291 292 292 292 292 290 287 286 285 285 285 285 285 285 285 285 285 285 285 286 286 287 287 287 287 287 287 287 287 287 286 286 286 286 285 284 284 284 284 283 283 282 282 281 281 280 280 280 280 280 280 280 280 280 280 279
290 288 290 291 289 290 290 291 289 288 288 287 287 288 288 288 287 288 289 291 290 289 291 292 291 291 294 295 297 296 292 293 294 290 286 288 290 289 286 286 286 286 286 286 286 286 286 286 286 286 286 286 286 287 287 287 287 287 287 287 286 286 286 285 285 284 284 284 284 284 283 282 282 281 281 280 280 280 280 280 280 280 279 280 280 280
291 289 293 289 288 288 290 290 290 288 288 287 285 286 288 288 288 289 290 290 290 290 291 291 290 290 296 298 294 292 293 293 290 288 292 292 291 289 287 287 286 286 286 286 286 286 286 286 286 286 285 286 286 287 287 287 287 287 287 287 286 286 286 285 285 285 285 284 284 284 283 283 282 281 281 281 280 280 280 280 280 279 279 279 279 279
291 286 288 289 286 286 289 289 289 288 285 285 286 285 286 287 285 287 287 290 289 288 289 289 288 289 295 293 292 290 292 292 293 294 293 293 291 289 288 287 287 288 287 287 287 286 285 285 285 285 285 286 286 287 287 287 287 287 287 287 286 286 285 285 285 285 285 285 285 284 283 283 282 282 281 281 280 280 280 280 280 280 280 279 279 279
288 288 288 288 285 286 289 289 288 288 285 283 284 288 289 289 290 290 290 291 291 292 288 287 288 294 297 290 290 289 292 292 293 295 295 295 295 292 291 290 290 290 290 290 289 286 286 286 286 286 286 286 286 286 287 288 287 286 287 286 286 285 284 285 285 285 285 285 285 284 284 283 282 282 282 281 281 280 280 280 280 279 279 279 279 279
288 289 288 289 284 286 288 288 288 284 278 281 293 295 294 291 290 288 288 290 292 292 291 294 295 297 297 290 291 290 291 293 296 297 299 300 298 294 292 292 292 293 293 292 289 288 287 287 287 287 287 286 286 287 287 287 287 287 287 287 285 284 284 284 284 285 285 285 285 284 284 283 283 283 282 282 282 281 280 280 280 280 280 280 279 279
288 289 288 289 285 285 288 287 283 278 281 292 294 294 297 296 295 292 292 293 293 293 293 292 293 294 296 291 293 293 293 295 295 296 297 296 297 297 294 292 292 292 293 291 287 287 287 287 287 286 285 286 285 285 286 286 287 286 285 285 284 284 284 284 284 284 284 284 285 284 284 284 283 283 283 282 282 281 280 280 280 280 280 280 279 279
288 288 289 288 288 286 284 284 278 280 287 288 288 290 288 291 292 292 290 292 293 293 293 292 294 296 297 296 293 290 290 290 289 290 292 293 292 294 293 294 293 292 291 290 289 288 288 287 287 286 286 286 285 285 285 286 286 285 285 284 284 283 283 283 283 284 283 283 283 284 284 284 283 283 283 282 282 281 281 280 280 280 280 280 280 280
292 290 289 286 289 282 284 284 284 289 288 289 288 290 288 289 288 289 287 290 295 295 294 293 294 295 296 296 296 287 285 288 290 295 295 292 289 290 294 295 294 292 291 291 290 291 289 288 287 286 285 284 285 284 285 285 285 285 284 283 283 283 283 283 283 283 283 283 283 283 283 283 283 282 282 282 281 281 281 281 280 281 280 279 280 279
293 289 289 286 285 288 284 282 283 283 280 286 293 294 290 294 293 293 291 289 295 295 296 295 294 295 294 294 293 286 288 289 291 295 295 290 292 291 290 290 288 289 290 289 286 286 286 286 285 285 285 284 284 284 284 284 285 284 283 283 283 283 283 283 283 284 283 283 283 283 283 283 282 282 282 281 281 281 281 282 281 281 281 280 279 279
292 293 290 288 285 286 283 281 281 280 283 290 291 290 288 291 292 289 287 286 295 296 294 294 293 294 294 294 292 288 290 289 291 296 291 292 292 291 290 289 290 288 288 288 288 287 285 285 285 284 284 283 283 283 283 284 284 284 283 283 282 283 282 282 283 283 283 283 283 283 283 283 283 282 282 282 282 282 282 281 281 281 280 280 280 279
288 288 288 285 284 286 284 282 281 286 285 289 287 284 285 288 293 291 281 283 295 293 293 292 293 294 294 294 294 290 291 289 291 296 289 292 291 290 291 290 289 287 286 285 284 285 285 284 284 283 283 283 283 283 283 284 284 283 283 282 282 282 282 282 283 284 284 284 283 283 283 283 283 283 283 283 283 282 282 282 280 280 279 279 279 278
284 286 286 283 285 285 285 284 286 286 289 287 284 283 285 291 292 285 281 290 291 292 291 294 294 296 296 295 294 290 293 297 294 287 287 287 288 286 286 287 287 287 286 284 284 284 284 284 284 284 283 283 282 282 283 283 283 283 282 282 282 282 283 283 284 283 283 283 283 283 283 283 283 283 283 283 282 282 280 280 280 278 278 277 275 275
285 285 286 286 284 284 285 283 283 287 289 288 283 287 289 290 281 284 292 287 289 286 290 294 294 295 295 295 294 294 297 293 282 284 285 287 289 288 286 284 283 282 282 283 283 284 284 283 282 282 281 281 282 282 283 283 283 282 282 282 282 283 283 283 283 283 282 282 282 283 283 283 283 283 282 281 279 278 278 277 277 277 276 276 274 273
285 284 281 283 285 286 285 283 282 279 288 289 289 287 288 288 291 291 287 282 281 281 286 288 291 292 290 291 290 293 287 281 285 285 284 284 284 284 284 283 285 284 283 282 282 282 284 282 282 282 281 280 281 282 283 283 282 281 281 281 282 281 281 282 282 282 282 281 281 281 281 281 280 279 279 278 278 278 277 275 275 273 274 273 273 273
289 285 284 286 289 282 282 280 282 288 288 290 293 289 290 293 287 285 285 286 282 280 283 288 289 288 286 290 288 286 286 284 281 282 283 282 283 282 282 282 282 282 281 281 283 282 282 282 280 279 277 279 280 281 282 283 281 280 280 281 280 279 279 280 280 280 280 279 279 278 278 278 278 278 278 278 277 277 275 274 274 273 274 273 273 273
288 287 287 285 288 287 285 288 287 284 287 291 294 290 291 295 285 283 283 285 284 283 281 283 287 285 285 287 286 286 283 283 286 283 285 284 283 283 283 283 283 283 282 282 281 280 281 281 279 278 276 277 278 280 282 282 281 279 280 279 278 279 279 279 278 279 278 278 277 277 277 277 277 277 276 276 277 276 275 273 273 273 270 272 272 272
286 285 285 285 285 287 287 286 286 284 284 287 289 284 284 287 283 282 284 285 284 284 284 285 282 283 282 283 287 281 286 284 283 282 281 282 282 282 281 281 280 280 280 280 279 280 280 279 279 279 278 276 276 278 278 280 281 280 280 277 278 278 278 277 278 278 277 277 276 276 275 275 273 274 274 275 276 277 276 275 273 274 271 272 272 272
286 285 286 286 286 287 284 286 287 287 285 286 289 289 283 282 284 283 283 285 286 284 284 284 282 282 283 284 287 287 284 282 283 282 280 281 281 280 280 281 281 281 281 281 280 279 279 279 279 278 277 276 273 276 276 277 277 278 277 276 277 277 277 277 278 277 275 275 274 273 274 275 275 274 272 272 273 274 274 274 274 274 272 272 272 271
283 286 286 286 286 286 286 287 285 285 284 284 285 286 288 289 285 284 285 284 284 284 284 284 283 282 283 284 286 285 284 282 283 281 281 281 281 280 280 280 280 281 280 280 279 280 280 281 279 278 277 276 274 274 274 274 273 274 276 275 275 275 276 276 276 276 274 273 273 273 274 275 271 273 273 273 274 274 272 272 273 274 273 272 272 272
286 287 281 286 287 287 288 289 287 285 286 287 287 285 287 289 288 286 284 284 284 284 284 284 285 284 285 286 285 285 284 283 284 284 283 282 281 281 280 280 280 280 278 279 279 281 282 280 279 278 277 275 273 273 272 270 269 271 274 274 273 275 275 275 273 272 271 271 272 272 271 273 273 274 273 272 271 272 274 274 273 274 273 270 273 274
285 283 283 286 283 284 286 288 287 284 287 291 290 290 289 288 288 287 284 283 284 284 284 285 284 284 285 285 285 284 285 284 283 283 283 282 282 281 281 280 279 278 278 277 278 279 279 279 279 278 276 274 272 273 273 270 269 270 272 272 273 275 275 272 271 271 270 270 271 270 270 270 270 269 271 272 272 270 268 270 275 274 274 272 273 277
286 285 286 284 285 284 289 290 289 292 292 292 291 290 290 289 287 287 285 285 285 286 286 286 286 285 284 284 282 285 285 283 283 283 282 282 282 281 281 280 279 278 276 275 277 276 277 276 276 276 274 273 272 273 273 272 268 268 268 271 272 274 273 272 272 271 269 269 269 270 270 269 269 268 269 269 270 269 271 268 270 278 278 277 275 277
Wind_Speed
0 4 4 7 9 10 6 10 5 4 5 6 4 4 3 3 5 5 5 5 1 1 9 12 11 10 12 13 14 9 3 7 11 14 14 12 11 12 12 13 13 12 15 3 9 10 11 11 10 9 9 8 9 8 8 8 8 8 7 9 9 6 7 7 8 6 7 7 5 3 5 6 3 4 4 5 3 4 4 5 5 4 2 5 8 6
3 4 7 12 9 4 5 4 6 5 3 2 3 2 4 3 8 4 1 2 2 3 4 3 4 11 13 13 15 10 3 13 15 15 16 16 13 12 14 15 14 12 1 5 6 8 9 9 10 9 7 10 14 11 10 10 10 9 9 10 9 8 8 5 7 7 6 5 5 6 5 6 4 4 4 5 3 4 4 5 5 4 3 4 6 7
2 7 11 9 4 5 4 5 3 4 2 2 3 2 1 7 5 9 3 2 1 1 10 7 10 14 11 12 14 14 15 13 13 14 18 14 12 12 13 14 11 6 9 7 9 8 10 10 10 8 9 11 12 12 11 9 10 10 9 8 9 8 9 6 6 6 5 2 4 5 5 5 5 4 3 4 3 4 5 4 4 4 2 3 6 8
1 6 15 3 5 6 4 3 5 3 2 3 2 1 8 3 1 6 1 2 1 3 4 3 11 14 10 10 17 19 16 12 9 13 15 12 14 17 16 10 9 11 12 13 12 12 10 9 8 8 12 12 11 11 11 11 11 9 9 9 9 9 7 7 5 5 5 6 8 8 7 6 5 5 4 5 4 5 6 5 4 4 2 2 7 7
9 1 2 3 6 7 4 3 5 5 5 3 6 5 3 3 5 7 5 3 1 1 2 6 10 11 9 11 8 7 5 7 17 13 12 15 15 16 7 5 10 14 13 12 9 10 11 12 13 15 12 11 13 12 13 13 11 7 11 11 11 9 8 7 6 7 8 8 8 7 8 8 9 7 5 5 4 3 4 5 4 3 2 1 7 7
9 5 3 5 2 4 6 3 6 7 4 3 5 10 8 6 7 3 3 5 7 5 2 3 8 4 4 5 10 8 6 7 6 6 13 16 14 6 10 14 10 10 9 13 14 14 14 13 9 11 13 14 13 13 11 12 9 10 10 10 9 9 6 5 6 8 8 9 12 7 9 8 7 7 6 8 10 6 5 5 3 4 2 1 8 6
5 1 2 5 5 3 4 4 5 6 6 1 5 7 10 5 3 2 2 2 3 4 1 3 2 12 2 5 5 6 5 12 9 6 12 13 10 5 10 11 10 10 9 7 7 9 12 12 11 13 14 15 15 13 11 11 11 12 10 10 10 9 7 7 7 8 6 7 8 13 13 13 13 11 5 3 5 5 4 4 5 3 2 3 8 7
2 0 4 4 5 4 4 2 5 10 5 4 2 3 4 4 5 4 3 6 6 1 3 1 3 6 16 5 7 7 7 11 11 15 17 14 7 8 9 10 9 8 9 9 11 11 12 12 14 16 17 14 13 11 11 12 11 14 13 13 12 9 8 8 8 8 7 8 9 7 7 8 10 10 12 8 6 5 4 6 4 3 3 5 6 6
6 3 4 5 3 3 7 5 4 9 7 2 1 4 5 5 4 3 3 3 1 4 8 1 0 2 8 3 2 0 4 8 12 15 16 12 6 7 9 9 8 8 9 10 10 12 13 14 13 11 12 12 12 13 14 13 10 11 11 11 10 8 8 8 11 10 7 7 10 7 7 8 3 6 6 6 5 6 5 8 4 3 3 5 6 6
1 3 8 7 7 7 4 1 5 11 4 1 5 6 7 7 6 4 4 3 2 2 10 5 6 3 18 3 3 4 1 7 10 14 15 10 8 8 9 7 6 5 5 7 9 9 11 11 12 11 10 12 14 13 11 11 11 10 10 12 12 10 8 9 10 8 8 7 6 6 7 10 9 7 6 5 6 6 4 6 5 3 3 4 5 5
0 4 3 4 7 4 5 2 1 0 1 8 4 7 5 7 4 3 6 2 2 4 9 10 12 7 11 3 8 8 8 9 11 8 8 7 8 10 8 8 6 5 6 7 7 7 8 7 9 10 13 13 12 10 12 10 11 12 12 13 15 12 7 9 9 9 9 8 6 6 9 11 13 12 10 8 6 5 5 6 5 5 4 4 5 5
0 1 1 2 4 3 4 4 3 2 4 5 2 3 3 2 6 3 4 4 1 9 0 3 6 4 11 4 6 6 5 5 8 9 9 7 8 8 4 5 6 6 6 5 6 6 7 7 8 10 12 13 14 13 12 11 10 11 11 13 15 12 9 9 9 8 8 7 8 6 8 11 12 14 13 13 12 9 9 8 8 5 4 4 4 4
5 6 2 1 3 9 3 8 3 3 0 2 5 6 5 4 5 3 3 2 5 9 1 4 0 5 17 15 3 7 11 11 9 10 11 10 10 9 6 6 5 4 4 5 6 7 8 10 12 13 13 12 14 15 16 13 12 11 12 14 16 14 10 9 9 10 8 8 7 8 8 8 10 11 13 15 12 10 10 8 8 7 7 6 6 6
7 1 1 3 2 5 8 8 3 1 6 5 8 7 6 1 1 4 4 2 7 8 4 1 1 9 2 8 14 21 21 15 8 12 12 11 13 10 7 5 5 4 6 7 7 8 9 10 11 12 13 14 12 14 14 13 12 12 11 13 14 16 10 9 10 11 10 9 8 7 9 10 10 11 9 9 9 10 8 9 10 9 10 9 9 9
5 5 6 8 5 6 10 12 13 6 10 10 2 10 9 8 7 4 5 6 8 5 2 5 1 8 4 4 2 10 8 6 7 8 8 8 10 12 5 5 6 7 7 7 8 10 11 11 12 12 12 12 13 14 14 12 12 12 13 14 15 15 13 11 10 10 9 9 8 7 8 8 8 9 8 7 8 10 9 7 7 7 9 9 8 7
9 6 5 5 2 7 13 2 6 6 3 2 2 5 4 8 6 6 4 3 1 3 5 2 7 4 6 3 6 5 7 9 7 7 5 10 10 7 9 8 8 9 9 8 9 9 9 8 9 10 11 12 12 14 13 15 14 13 13 13 14 15 14 12 12 11 12 10 9 9 9 8 9 7 4 4 5 5 7 9 9 9 8 7 8 6
3 4 1 5 4 5 5 1 1 4 8 5 6 7 6 2 6 4 2 2 1 3 12 3 10 7 9 11 13 16 11 12 6 5 5 11 7 4 9 11 8 9 8 8 9 8 8 7 9 10 11 10 11 13 14 15 14 14 12 13 13 13 12 12 12 11 11 10 10 9 8 8 9 8 9 9 11 11 8 7 7 8 8 8 7 7
8 5 1 2 5 1 0 0 2 5 3 9 4 8 2 2 3 5 5 2 4 4 8 3 8 10 3 17 2 0 5 13 9 12 12 10 5 6 12 12 11 7 6 6 7 6 7 8 10 10 10 11 12 13 13 14 12 11 11 13 14 12 13 12 12 11 11 10 10 9 9 9 10 9 9 8 8 9 9 7 6 6 8 9 7 7
3 5 1 2 0 4 2 1 1 2 3 5 4 4 7 4 2 1 4 4 1 5 7 5 2 10 10 15 2 2 5 7 10 10 6 10 9 11 11 12 10 6 4 6 7 8 8 10 10 11 11 10 10 11 12 11 11 10 10 10 11 13 13 13 10 10 9 10 9 9 10 9 9 7 6 6 6 7 9 10 8 8 8 9 8 7
1 5 3 1 3 1 0 4 9 3 1 1 2 3 1 2 1 6 8 3 5 5 2 9 2 15 7 9 6 10 11 10 8 2 7 11 9 7 7 9 7 6 7 7 8 9 9 9 10 11 11 11 12 11 10 11 10 12 12 10 10 9 9 10 11 10 9 9 9 8 8 8 7 6 8 9 9 9 9 9 10 10 10 10 8 7
3 2 6 1 3 2 4 6 10 13 11 1 2 4 1 1 2 4 1 3 3 5 4 1 10 16 11 9 10 12 14 12 10 9 9 8 7 8 7 7 6 7 7 8 9 8 9 9 9 9 9 8 6 7 8 10 12 11 10 11 11 13 12 12 11 11 11 10 10 10 10 10 9 9 7 8 8 9 9 8 8 8 9 9 8 8
1 2 9 3 0 6 7 3 5 9 13 14 16 15 17 11 6 4 7 2 2 4 6 5 15 19 5 4 9 8 10 8 11 14 12 8 4 5 5 6 7 7 7 7 7 7 8 8 8 7 7 6 7 8 10 10 10 11 12 11 11 10 11 12 11 11 10 9 9 11 10 10 9 8 8 9 9 9 8 9 8 9 10 10 8 8
8 3 4 5 10 11 4 0 1 2 1 1 3 4 4 2 2 3 3 6 0 3 3 3 4 25 3 11 7 7 9 10 9 3 8 9 9 9 8 7 6 7 6 6 7 7 7 7 8 10 11 11 11 10 9 9 11 11 12 11 10 11 11 11 11 11 10 10 10 9 9 9 10 9 10 10 8 9 10 9 9 9 10 10 9 8
5 3 3 6 2 2 1 1 2 1 1 1 1 1 5 10 13 12 7 4 8 1 2 2 1 21 1 3 6 4 3 1 5 7 11 9 3 5 4 7 7 5 6 5 4 5 7 7 7 8 10 10 10 10 11 10 10 10 11 12 11 12 11 10 10 9 9 9 9 9 10 10 9 10 10 11 9 10 9 9 8 8 9 9 8 8
5 4 8 3 2 0 2 1 1 2 1 3 4 7 10 8 5 1 4 1 3 10 14 10 13 23 1 1 2 1 4 5 7 8 4 9 7 7 7 8 6 4 5 5 6 6 6 8 10 10 10 11 10 10 10 11 11 11 11 11 12 11 11 10 9 9 9 10 11 11 10 10 10 12 12 11 10 11 10 8 7 5 6 7 7 6
7 8 9 8 11 12 10 10 12 9 11 3 2 4 5 10 14 6 7 5 9 11 12 7 11 23 2 1 2 3 3 6 7 5 4 6 8 6 6 6 4 4 6 5 5 7 10 10 9 8 9 9 10 11 11 10 10 10 9 10 9 11 10 10 9 10 10 10 11 10 11 9 9 11 12 12 11 12 11 9 9 8 7 7 8 8
2 2 11 13 14 16 15 11 0 10 6 7 11 15 14 13 12 12 6 6 14 17 11 16 24 27 17 4 5 6 4 8 9 6 8 10 12 7 5 7 5 6 7 8 8 8 5 7 12 11 10 10 10 10 10 11 12 11 11 11 10 9 11 11 11 11 11 11 12 10 10 9 10 9 9 10 9 10 10 11 9 9 9 8 9 9
2 4 9 14 19 19 17 18 9 14 12 16 18 15 17 16 16 16 15 18 20 10 16 19 20 17 25 23 12 7 8 8 7 7 8 9 8 8 9 7 5 5 5 5 7 9 12 11 9 10 11 11 10 10 10 10 11 12 13 13 11 11 11 10 12 12 11 11 11 11 10 10 9 10 10 9 9 9 9 8 9 9 9 9 10 9
6 9 10 10 15 16 18 19 10 11 13 16 19 18 19 19 15 18 23 27 21 16 21 21 15 18 24 27 22 14 13 12 13 14 12 5 2 4 4 7 8 8 7 9 12 11 11 12 11 11 11 11 11 12 12 11 11 10 10 10 11 11 13 12 12 12 12 11 12 11 10 10 9 8 9 9 8 8 9 9 9 9 10 9 7 6
4 9 9 15 17 18 19 21 13 17 11 7 12 16 18 20 23 26 28 29 26 18 16 21 24 24 23 27 22 13 11 12 12 4 2 3 8 11 9 8 8 9 11 13 14 14 13 11 10 11 12 12 14 14 13 12 12 13 13 12 12 12 11 11 12 12 12 11 11 9 10 10 9 9 10 11 11 11 10 9 10 10 10 9 8 8
7 10 15 9 11 15 19 19 18 13 13 14 7 8 14 20 26 31 28 23 17 18 21 26 27 27 24 20 12 6 13 10 3 5 9 11 10 9 10 10 9 11 12 13 12 12 12 11 10 10 13 14 15 16 15 14 13 12 12 12 13 13 12 12 12 12 12 13 11 11 11 11 9 8 10 12 11 10 11 12 11 10 10 11 11 11
9 4 1 1 8 10 10 15 19 13 6 9 11 9 15 21 23 19 16 16 19 24 26 23 20 22 27 5 6 6 8 11 12 12 10 11 11 11 11 12 12 12 12 13 13 11 11 12 12 13 16 16 15 15 14 14 13 13 14 12 13 12 11 12 12 13 13 12 12 12 12 11 12 12 12 11 12 12 10 10 9 10 11 10 10 10
5 5 9 7 12 13 15 15 15 10 4 6 12 21 28 24 16 12 17 21 25 23 17 17 24 25 25 5 5 7 11 14 12 12 14 15 15 14 15 16 15 12 12 13 12 12 12 13 15 17 15 13 14 15 15 13 13 15 14 13 12 10 11 12 12 12 12 11 12 12 12 11 12 12 12 12 10 10 9 10 10 10 10 11 10 10
7 11 10 7 9 8 14 15 8 6 15 16 18 28 24 23 20 19 21 25 25 17 17 21 23 23 22 8 8 8 10 13 17 18 18 17 16 14 13 10 11 13 13 12 9 11 12 10 10 12 13 14 14 14 12 13 15 12 11 12 11 13 12 12 11 11 11 11 11 11 11 12 12 11 12 10 9 9 10 10 12 10 8 7 7 9
12 12 12 7 6 9 10 7 9 18 18 14 8 5 15 22 22 25 28 24 19 17 18 20 24 27 27 5 10 12 14 14 10 13 15 14 12 11 12 13 15 14 15 11 8 9 11 13 11 9 9 11 11 10 10 10 9 8 9 10 11 11 11 11 11 10 10 10 9 10 10 11 11 10 10 10 10 10 10 11 9 9 8 9 10 10
10 12 7 7 6 2 3 9 13 14 4 4 5 10 3 3 8 10 14 19 22 21 21 25 31 32 28 18 10 4 5 6 8 13 15 12 6 8 9 14 15 14 13 11 12 13 12 13 14 14 13 9 9 10 11 12 10 11 11 10 12 11 11 12 11 11 10 10 10 11 11 11 11 10 9 10 10 11 11 10 10 10 8 8 7 7
11 8 8 9 8 12 8 14 19 6 11 6 6 10 11 12 9 15 17 21 24 24 24 24 29 28 23 15 13 3 0 2 9 18 16 10 10 11 15 15 13 13 12 12 13 13 11 9 10 9 7 9 10 11 11 10 11 11 11 12 11 12 11 12 12 12 11 11 11 11 11 11 11 9 10 10 10 11 10 10 10 9 7 8 8 9
13 14 7 11 8 12 13 13 9 10 15 17 22 14 3 10 7 7 11 15 16 19 22 24 26 23 16 14 11 6 3 4 17 26 11 14 15 16 11 7 3 6 8 7 3 4 5 6 5 6 10 11 11 11 10 11 12 11 11 12 11 12 12 12 13 11 11 11 11 10 10 10 10 10 10 10 12 11 10 9 7 8 8 10 10 10
15 16 14 15 8 9 13 14 13 13 14 10 16 8 7 8 10 6 4 14 18 22 11 16 15 16 17 17 14 10 8 12 21 24 5 15 13 10 12 12 12 9 7 8 10 9 7 7 8 9 9 11 12 10 11 12 13 12 12 12 12 12 12 12 11 11 12 10 9 10 11 10 11 11 11 11 11 11 11 11 11 9 8 8 7 8
16 12 10 13 12 12 11 13 13 7 11 8 6 2 3 6 13 10 8 12 21 4 9 10 12 20 19 20 16 13 16 17 19 21 7 11 12 14 15 14 12 9 8 5 3 5 7 7 9 9 10 12 12 11 13 13 12 12 12 11 11 12 12 11 11 10 10 10 11 11 10 9 11 11 12 12 10 9 9 7 7 8 9 8 7 6
10 9 11 20 15 17 18 13 7 7 3 4 3 3 4 9 12 10 17 16 4 8 10 15 18 20 21 20 14 14 18 23 14 2 4 4 5 3 4 1 4 6 7 6 7 7 8 8 9 11 12 10 11 12 12 12 12 11 11 11 11 12 12 11 10 10 9 9 9 9 10 9 11 12 10 10 10 9 7 7 8 8 8 8 6 5
6 8 7 11 14 14 13 16 14 8 5 7 3 10 9 7 5 17 8 1 7 5 11 16 17 18 16 17 15 16 19 11 2 1 3 6 7 6 5 5 6 6 4 5 8 8 8 7 6 6 6 7 12 12 12 12 12 10 11 10 12 11 8 8 9 9 8 9 9 9 9 10 8 9 9 7 8 8 8 6 7 8 8 6 6 7
11 9 10 12 8 9 8 12 10 13 3 7 12 2 3 8 14 6 3 2 1 2 4 8 9 12 6 9 8 11 5 2 6 6 6 4 6 7 9 9 10 10 11 10 8 6 10 9 9 9 9 8 9 9 10 12 12 10 10 11 10 8 8 8 9 9 9 8 9 9 9 8 9 8 7 8 9 9 8 7 7 6 7 7 7 7
6 10 4 8 9 10 13 12 10 7 4 10 18 13 13 16 4 2 2 4 3 4 5 7 9 8 5 7 7 7 6 5 2 3 4 3 3 3 3 4 5 5 5 4 7 10 8 9 7 8 5 6 7 8 9 11 11 9 10 10 7 7 8 8 8 9 9 9 8 8 8 8 8 8 7 8 8 8 8 8 7 7 7 7 7 6
8 11 3 10 7 12 9 9 1 1 6 12 10 2 3 10 1 2 2 2 3 5 3 1 8 5 6 7 5 7 5 7 7 9 10 9 7 8 10 9 9 10 10 10 10 8 8 12 12 9 7 5 7 7 8 8 12 11 12 8 8 9 10 9 9 9 9 9 8 8 7 7 7 7 7 7 8 8 7 7 7 7 4 6 5 5
2 3 1 1 4 5 3 1 1 0 2 7 7 4 1 5 3 1 0 2 3 4 6 6 3 4 4 4 6 4 8 7 6 7 4 5 7 5 5 6 6 5 7 8 8 8 9 9 10 12 11 6 5 6 6 7 10 14 10 9 8 9 10 10 10 10 10 8 8 8 8 8 6 6 6 7 7 8 8 9 8 7 6 6 6 6
7 3 1 4 2 4 7 4 11 8 4 5 11 7 3 2 2 1 1 3 6 2 5 4 4 4 5 4 7 8 6 6 7 5 4 6 7 8 8 9 8 9 12 12 10 12 11 11 11 11 11 10 4 6 5 6 4 6 8 9 8 9 10 10 11 10 8 9 8 7 8 9 7 7 6 5 5 6 6 6 6 7 7 7 7 6
6 6 6 3 1 7 6 3 2 3 3 4 5 6 9 8 4 4 5 4 3 2 2 3 1 3 3 5 6 5 5 5 8 8 7 7 8 8 8 8 10 8 4 8 10 10 11 12 13 12 11 11 7 6 6 6 6 6 8 8 8 9 10 10 10 10 9 9 8 8 8 8 9 10 7 6 7 7 6 5 7 8 9 10 9 8
3 7 6 6 9 5 7 11 8 2 5 7 8 8 9 8 7 5 4 2 2 2 2 1 2 3 5 3 1 3 6 7 5 7 8 6 7 7 7 7 5 7 10 10 8 9 11 11 12 12 12 10 7 7 6 5 5 7 9 9 9 10 11 10 8 8 8 7 7 7 6 7 7 7 7 6 5 5 5 8 8 8 5 3 6 8
5 7 3 6 4 4 12 12 5 3 9 12 11 12 12 11 9 7 3 3 5 5 5 6 3 0 2 1 3 4 5 5 4 6 8 7 7 7 8 8 8 9 7 5 6 6 7 8 13 12 12 9 7 7 7 7 6 5 6 7 8 9 11 10 9 8 8 7 7 7 7 6 6 6 7 7 7 6 1 2 4 5 6 6 7 11
10 8 8 9 9 11 12 10 8 12 12 11 6 7 10 8 9 10 10 9 9 9 10 7 3 1 3 2 2 4 5 7 8 6 7 7 7 7 7 10 11 9 9 8 9 7 8 8 8 11 11 9 7 7 7 7 6 6 5 6 6 8 10 10 9 7 7 7 6 8 7 7 6 6 6 6 6 6 6 2 1 5 9 7 6 9
Wind_Direction
0 113 167 200 224 213 199 193 189 156 131 104 95 116 189 204 284 278 271 258 236 318 233 235 243 252 264 266 271 268 160 250 264 265 259 252 242 239 240 238 236 231 239 160 191 184 188 188 184 182 177 175 174 175 171 165 169 166 157 158 158 153 151 152 147 144 142 130 114 105 118 119 100 96 79 65 59 70 70 66 82 68 104 119 117 121
60 117 235 223 225 197 198 136 104 88 61 140 118 157 266 160 248 234 220 15 295 174 296 273 261 260 254 265 269 273 200 253 246 255 257 255 240 239 237 241 235 237 36 169 188 198 185 187 186 179 179 179 184 190 182 176 178 172 169 171 161 159 164 169 166 152 157 154 159 156 143 126 114 119 115 109 75 76 63 54 63 86 100 115 112 116
95 192 237 226 102 95 81 134 125 152 131 62 185 187 303 264 248 280 295 336 293 131 263 291 280 268 257 253 264 260 250 245 238 234 249 251 254 242 239 239 240 219 228 197 212 189 193 187 186 184 185 189 189 186 186 178 176 175 176 173 164 165 168 165 164 153 149 115 88 121 129 132 105 44 48 83 96 82 84 69 60 54 81 124 103 103
34 279 251 140 135 106 48 86 100 81 79 146 107 130 231 226 28 299 292 2 193 179 274 317 296 280 263 248 249 251 244 258 258 253 257 255 256 254 244 230 221 223 224 217 201 196 186 187 189 189 192 189 184 185 187 183 182 178 180 174 169 168 163 161 151 118 90 89 85 89 94 81 82 125 102 84 86 89 87 72 54 43 49 113 104 95
193 217 335 150 151 156 131 114 121 146 233 262 192 201 226 205 234 189 255 295 244 9 55 310 272 272 234 242 260 273 299 265 261 261 261 259 242 250 280 253 211 221 217 220 201 194 183 187 197 196 188 178 187 191 191 187 184 179 181 177 172 169 166 158 137 131 127 111 90 98 85 91 93 78 95 101 71 65 91 97 68 52 29 149 97 92
279 256 107 73 91 96 110 149 198 151 230 291 233 200 216 215 229 271 348 13 359 334 343 36 319 288 303 243 247 277 326 293 258 241 253 254 256 244 247 246 236 233 218 210 205 196 190 193 187 193 190 188 192 192 191 187 175 175 175 170 168 166 161 141 144 144 143 141 140 136 134 135 130 133 149 158 158 166 158 131 113 74 45 112 91 90
206 23 143 156 135 141 141 178 233 164 188 58 272 201 218 208 192 221 277 56 286 240 293 39 56 288 201 229 241 269 259 262 280 264 263 260 256 231 239 245 236 225 225 227 212 190 186 196 187 195 196 193 192 192 182 181 180 178 171 173 170 164 153 151 154 156 153 147 163 165 164 161 163 161 178 97 110 116 102 102 98 98 79 69 98 92
125 47 77 83 102 130 132 206 242 164 124 237 256 145 142 148 187 216 161 183 239 271 298 56 129 274 293 238 232 242 254 270 289 283 268 259 258 239 240 245 241 226 216 206 208 198 198 191 190 194 196 190 190 174 174 182 177 182 179 175 176 164 156 160 163 169 173 156 169 175 172 165 166 168 162 150 125 109 123 105 102 115 101 80 76 97
154 172 152 164 145 125 194 210 176 159 147 221 226 135 150 162 176 128 129 166 297 15 292 323 293 286 257 273 330 305 228 263 261 261 264 269 258 256 255 249 243 231 216 204 201 200 195 194 198 193 188 189 178 178 185 184 178 174 172 170 166 160 156 162 169 172 177 177 172 172 160 148 68 88 108 109 112 122 134 109 109 103 108 92 80 77
303 166 206 161 147 205 210 292 181 164 176 228 125 91 82 78 66 104 99 95 321 44 269 178 190 193 276 182 164 342 208 255 249 247 256 269 275 268 266 266 254 247 229 217 214 202 200 197 194 189 178 177 184 183 178 181 177 174 169 172 172 169 164 166 171 173 172 172 169 157 158 143 132 120 112 114 124 130 137 116 116 126 123 112 104 96
170 300 178 132 190 190 125 52 116 292 103 129 114 80 34 42 43 30 63 81 33 267 262 187 199 166 278 187 187 158 203 199 229 269 278 284 282 270 256 260 260 243 223 215 211 206 199 189 180 176 184 182 174 172 177 176 179 178 173 176 182 175 161 166 169 169 170 170 168 160 158 153 146 150 144 131 133 133 133 133 134 154 136 124 116 123
81 58 157 249 85 109 102 77 22 97 132 126 113 125 81 357 7 34 341 38 100 270 272 329 216 200 227 288 272 250 281 251 219 234 260 280 264 261 277 269 252 241 226 219 201 193 171 164 177 182 187 181 178 173 177 179 178 176 176 176 180 173 168 165 166 169 169 165 171 163 153 159 158 152 160 160 157 163 156 152 147 152 137 125 123 127
259 214 232 60 217 132 117 86 15 34 312 91 95 90 122 245 33 290 23 261 195 231 224 335 261 315 239 244 245 271 266 259 217 228 240 249 263 263 275 265 258 238 223 208 204 187 187 185 181 187 187 178 182 184 182 179 180 179 179 181 182 180 168 165 163 168 168 167 168 164 161 155 162 169 169 168 161 158 156 155 150 164 153 146 147 171
272 333 177 196 83 237 151 149 147 69 218 150 158 147 108 140 209 267 279 273 307 289 273 341 98 249 306 281 223 244 244 241 228 232 241 243 255 262 251 276 284 248 219 217 205 203 199 193 191 188 185 186 182 183 182 180 181 181 181 181 182 183 167 162 169 173 170 175 169 160 163 163 167 174 173 171 166 161 158 161 165 171 161 167 168 164
243 302 241 140 243 177 190 201 184 159 160 203 95 164 182 146 156 209 198 217 234 230 274 278 71 235 122 241 236 232 263 287 251 248 248 263 264 269 281 279 275 262 238 215 212 207 202 198 190 187 187 187 184 181 182 183 186 180 185 184 183 177 177 171 172 172 170 170 167 164 163 161 169 171 178 169 177 152 155 165 167 166 152 160 161 161
217 233 267 218 325 163 189 214 104 94 75 208 162 71 96 223 133 227 208 180 275 337 332 206 214 192 196 270 289 238 261 272 248 255 280 271 258 281 292 265 246 237 230 215 218 217 214 200 192 191 191 189 185 183 184 186 187 186 186 182 183 179 177 176 174 177 174 170 167 165 160 165 172 174 149 141 165 172 162 159 170 165 161 135 128 121
49 276 302 310 49 174 184 82 166 147 199 204 113 203 210 169 115 81 51 65 42 45 259 127 281 276 297 266 233 248 245 254 265 273 252 256 259 298 274 270 244 237 229 220 221 218 206 193 200 197 193 191 188 186 188 189 188 187 180 180 181 179 176 178 179 173 173 166 163 168 165 163 172 174 176 175 173 166 156 158 158 150 139 119 125 125
150 236 329 88 219 306 120 248 97 22 143 98 192 230 157 134 110 140 221 7 70 207 271 103 251 294 50 285 14 55 213 253 252 254 246 261 273 256 255 261 263 250 229 220 222 218 204 202 199 198 199 196 193 189 186 187 185 186 185 183 180 177 177 181 177 175 173 165 170 170 172 174 180 180 180 172 165 150 141 137 128 121 133 141 131 130
134 281 300 336 333 292 0 118 39 359 28 147 196 198 126 224 235 283 89 257 198 247 274 295 273 264 194 253 168 255 203 250 250 247 264 263 245 237 248 259 264 258 231 212 211 205 199 196 197 197 198 196 196 193 190 184 177 180 184 185 183 183 183 177 175 174 173 175 176 179 179 174 177 176 158 150 147 145 153 152 147 154 136 120 131 136
111 185 284 313 147 311 9 123 202 182 357 46 63 135 84 101 160 140 198 177 124 258 49 289 39 274 186 221 172 212 198 215 222 234 233 230 231 212 229 247 258 255 229 222 211 208 203 198 195 193 191 193 193 189 186 181 177 186 186 177 181 174 172 173 175 174 173 178 175 173 171 176 174 155 156 158 153 156 163 158 152 148 148 144 136 140
211 142 255 303 313 100 185 195 207 164 167 96 138 213 198 254 245 111 13 141 170 178 186 259 300 263 252 184 172 200 200 204 184 209 223 238 240 221 227 235 251 237 228 218 211 205 199 195 191 192 194 193 186 186 181 182 184 184 177 182 180 176 177 179 178 176 182 175 178 169 171 153 155 152 149 144 158 160 159 156 155 152 139 127 149 149
133 156 210 155 302 229 244 245 202 191 190 179 180 193 187 149 160 144 253 36 108 129 232 158 251 273 252 213 172 197 214 186 203 207 217 221 245 253 239 251 233 243 236 226 220 203 195 188 183 182 179 177 177 183 184 187 181 181 185 184 179 178 180 178 179 182 177 179 173 174 169 161 149 147 146 151 157 161 159 156 159 148 145 154 149 157
175 147 98 182 208 207 205 35 249 258 226 181 184 253 156 198 112 126 189 234 6 253 76 175 73 271 225 177 193 180 198 201 186 181 243 216 201 207 234 249 255 244 244 225 208 201 196 188 184 182 181 184 188 184 183 185 185 185 184 180 182 180 185 181 181 180 175 174 174 167 159 154 155 149 156 156 163 163 159 158 150 155 160 154 153 155
109 143 163 254 349 335 326 290 41 77 91 316 337 102 148 184 193 196 210 179 166 146 218 250 203 261 112 229 191 217 261 313 313 196 204 282 299 239 220 249 257 262 255 244 205 208 193 179 176 176 182 185 188 184 186 186 185 184 186 184 178 187 179 178 177 175 170 169 164 161 156 161 150 154 157 162 165 164 156 148 152 156 152 143 144 147
144 236 200 183 351 283 352 336 312 2 52 195 185 202 202 197 187 73 92 116 179 199 205 155 232 265 229 319 280 257 274 263 197 266 252 208 239 245 218 232 248 249 255 229 198 208 192 177 186 192 188 190 189 186 185 187 186 184 188 182 183 184 176 173 170 167 168 169 165 162 163 160 161 163 166 166 162 162 152 148 144 148 143 136 138 131
180 159 170 196 218 231 233 210 219 206 200 197 250 192 181 174 190 149 218 196 216 232 197 204 243 250 76 301 215 239 256 261 263 228 244 245 235 220 263 235 222 219 230 224 211 207 205 197 189 192 192 191 192 188 185 185 184 187 186 188 183 177 169 173 166 171 169 173 169 166 167 165 168 173 170 168 164 161 155 149 150 150 148 153 144 144
179 229 187 192 205 224 232 244 76 110 84 181 216 189 199 203 195 198 208 207 217 231 210 216 225 253 256 249 234 227 214 214 230 232 220 231 242 226 223 254 214 207 213 215 212 218 225 209 202 196 192 195 191 189 188 186 185 183 183 184 183 178 171 169 169 172 175 178 176 171 174 169 174 172 168 168 163 151 150 150 149 150 153 160 157 158
89 213 225 216 212 221 230 237 197 160 180 203 202 200 199 191 189 190 198 222 221 225 247 233 236 249 262 258 236 224 227 237 248 250 251 248 248 213 206 227 228 221 229 221 220 216 214 213 201 195 193 191 193 189 192 191 189 186 183 183 178 174 173 170 171 175 179 179 182 183 178 172 171 171 170 162 153 155 153 152 154 155 153 156 166 168
169 220 217 218 235 234 234 242 181 193 194 198 201 194 192 197 190 196 216 225 218 210 230 246 233 230 249 255 247 217 201 203 220 225 223 226 184 256 212 200 208 216 212 215 227 220 216 210 201 196 193 194 189 193 192 189 189 187 186 183 179 177 180 171 170 174 178 183 187 186 174 169 167 165 159 157 156 159 162 162 159 155 157 164 159 159
159 231 213 209 223 228 236 239 216 194 218 214 205 200 192 187 197 205 217 222 221 227 236 248 252 242 237 248 249 228 192 201 218 205 102 164 219 210 217 218 207 208 211 221 221 218 215 212 198 195 191 193 196 194 193 191 190 188 185 184 180 179 178 166 175 174 179 184 186 172 167 168 164 162 162 165 171 172 168 164 166 167 166 167 165 161
182 221 213 223 233 234 237 240 241 219 214 226 214 198 200 202 205 208 215 223 229 240 238 241 247 257 252 249 257 182 189 203 157 161 207 217 223 218 211 214 214 216 219 222 224 219 210 203 200 193 197 201 197 196 193 193 188 185 187 185 180 179 173 171 174 179 180 185 180 170 167 167 167 158 170 176 170 170 170 172 171 171 171 173 173 173
178 268 14 163 240 248 249 247 246 244 222 242 242 218 213 214 218 218 219 215 212 221 227 237 251 254 257 162 192 158 180 190 204 214 221 231 226 218 213 213 213 219 221 223 222 210 199 197 197 200 204 204 200 195 193 189 185 183 191 183 182 179 169 175 178 180 184 183 174 170 171 171 167 172 178 172 177 174 174 168 170 176 178 176 175 178
181 188 220 204 233 232 237 240 248 253 269 265 244 239 229 224 219 216 225 225 223 219 224 225 236 240 249 143 174 197 181 199 205 214 225 230 228 214 212 211 212 218 222 225 217 202 199 197 202 204 206 201 197 197 197 182 177 191 186 181 180 162 172 179 180 182 184 181 175 174 172 169 171 176 176 181 176 172 168 172 177 181 180 185 183 173
180 205 220 199 239 231 239 246 247 235 230 229 224 229 229 232 219 218 227 226 229 215 222 226 240 247 249 201 200 200 200 203 205 216 214 217 225 224 223 218 219 220 228 230 216 204 206 206 209 209 204 199 198 196 185 182 187 185 177 173 164 171 175 176 181 182 185 180 180 174 172 174 175 177 180 175 171 169 173 178 187 186 180 170 166 178
204 197 218 190 229 229 241 248 245 232 235 236 258 274 240 239 235 227 233 236 239 232 239 253 255 254 252 193 216 210 211 224 231 232 233 231 226 217 209 215 222 223 227 220 208 212 210 207 208 200 198 201 190 177 168 180 174 154 156 161 165 171 171 179 176 183 181 179 177 172 173 175 176 175 170 169 170 171 178 184 182 177 177 175 178 180
191 200 205 225 216 261 196 218 241 236 234 345 273 237 287 270 253 248 258 247 242 234 223 233 241 245 248 234 233 228 236 262 289 265 248 242 211 201 202 219 220 216 217 206 203 212 206 201 198 196 200 178 162 171 175 173 161 158 165 161 166 168 174 176 180 184 178 179 177 177 176 172 174 173 170 169 172 177 182 181 181 178 176 176 181 188
206 206 200 233 181 232 209 226 239 297 308 267 268 242 192 202 177 190 228 240 233 228 224 229 239 244 248 247 238 198 221 346 279 263 235 214 214 217 212 221 209 207 206 212 203 212 204 194 194 192 160 162 169 165 173 163 161 160 156 164 170 169 175 177 185 187 182 180 178 178 176 175 171 169 169 171 173 181 180 177 181 183 172 177 184 186
198 210 186 223 206 205 231 244 242 235 240 245 237 248 100 207 206 197 217 259 255 236 225 228 237 247 250 245 231 184 112 248 263 262 230 181 210 214 219 231 224 209 212 212 191 211 186 188 161 150 159 160 169 171 160 159 159 155 159 166 167 170 177 183 191 182 178 183 178 172 165 165 165 169 172 172 181 182 183 181 179 179 174 182 185 193
206 211 208 215 219 196 220 232 232 235 238 232 258 240 195 176 150 107 160 249 251 247 220 221 234 246 240 236 225 147 188 228 247 256 179 188 202 193 193 212 209 207 199 190 187 192 179 171 162 155 150 158 165 167 156 155 155 158 166 170 172 175 179 187 183 177 180 173 163 165 167 171 171 173 173 179 185 182 180 182 183 179 175 188 188 193
205 210 214 228 224 216 222 230 237 220 247 229 242 242 229 140 115 116 211 243 251 217 194 159 193 226 232 231 214 177 202 230 242 253 149 189 179 189 189 197 204 203 205 184 181 166 148 137 135 149 160 171 171 154 156 155 160 164 165 170 165 175 185 183 180 176 170 168 169 170 169 170 172 176 178 183 179 177 182 170 158 168 177 184 183 180
199 220 206 223 219 230 229 246 261 265 268 239 205 208 174 156 133 173 223 241 164 158 173 167 198 211 221 226 198 201 217 221 235 315 170 126 113 166 234 188 195 181 171 161 162 139 145 155 163 170 171 166 154 155 155 155 156 166 167 165 172 184 187 180 168 165 164 161 162 166 171 172 177 178 181 178 176 171 163 163 169 164 170 177 174 167
221 209 223 217 226 226 229 236 239 260 225 187 247 154 163 116 218 224 236 187 163 184 190 193 199 215 217 217 206 207 225 226 108 101 97 176 174 183 166 144 109 94 93 127 139 141 140 145 144 142 143 155 155 155 157 156 160 163 163 167 183 187 164 152 158 156 155 161 166 169 170 172 174 175 169 161 148 154 168 168 160 168 168 164 165 176
183 196 189 206 217 234 230 241 236 235 233 173 119 82 284 197 240 224 187 262 188 273 209 228 218 235 208 237 222 220 221 148 178 172 184 165 161 164 170 161 164 158 154 143 139 152 145 145 153 159 155 155 155 155 159 155 157 160 161 176 182 155 150 150 150 154 156 159 162 167 168 168 167 164 159 161 164 161 163 157 156 157 156 157 168 180
179 213 186 219 189 217 211 222 222 227 174 169 153 196 194 215 157 178 124 236 246 201 210 216 237 225 208 212 209 218 206 169 190 183 158 182 137 126 114 126 116 121 117 109 134 148 145 134 133 131 135 146 149 152 154 155 150 155 162 179 153 143 141 145 149 148 153 159 162 159 163 166 166 162 162 160 156 155 149 159 159 157 166 166 171 177
181 212 174 219 185 209 219 228 212 241 181 200 205 279 246 225 50 144 118 196 218 267 190 223 249 245 203 207 198 181 186 214 188 180 174 188 173 165 166 163 162 157 154 145 149 146 145 148 144 135 126 135 144 148 152 152 150 155 170 168 146 151 149 147 147 148 154 157 159 162 161 157 160 161 156 155 154 153 155 153 155 160 167 163 171 176
315 206 74 83 263 305 281 174 161 78 250 244 259 205 256 327 349 75 125 299 238 223 191 204 241 222 216 192 162 219 210 192 174 194 201 161 159 150 125 127 123 133 126 127 128 141 132 126 125 132 130 125 137 142 146 150 153 163 173 151 156 149 147 144 144 149 154 155 157 157 150 146 145 148 151 154 163 163 166 163 168 169 165 172 183 184
234 173 112 193 256 216 261 174 210 215 222 215 236 240 211 217 235 198 239 231 281 255 226 237 222 201 195 186 197 199 203 177 183 181 166 159 159 160 158 153 153 156 155 149 148 133 132 132 131 135 137 134 139 135 137 143 147 145 139 150 147 143 142 143 146 146 147 151 147 143 149 148 152 150 150 158 156 155 156 156 162 163 168 180 183 187
280 176 198 181 265 222 244 247 297 330 294 281 246 249 252 246 238 214 201 220 246 278 256 257 164 190 155 201 210 183 191 181 174 175 173 172 165 162 161 157 152 145 138 138 143 142 135 140 139 142 141 139 148 138 133 132 133 144 140 138 141 140 138 141 149 151 153 149 148 151 156 153 154 154 158 166 161 155 156 164 170 176 185 186 185 182
182 118 211 179 218 239 287 279 259 348 292 256 244 242 242 240 230 232 207 230 236 211 262 297 238 229 189 210 155 165 168 202 195 176 162 158 157 163 159 151 147 139 136 137 147 148 150 145 141 142 138 138 143 133 126 123 130 143 143 145 144 143 136 136 133 130 134 141 140 151 157 153 160 161 157 160 173 181 175 174 183 192 202 208 181 186
114 199 198 170 219 200 224 236 168 237 262 254 225 224 231 226 215 221 165 179 203 211 197 190 221 257 184 169 163 173 192 187 177 169 168 168 161 142 141 143 142 135 126 118 121 127 126 135 135 135 131 136 139 136 131 131 135 141 138 141 145 139 133 133 130 131 141 147 147 144 146 144 151 151 156 162 169 166 202 323 184 195 182 199 196 203
191 195 171 205 202 232 235 234 179 212 239 249 228 231 227 210 192 213 215 211 212 216 198 183 188 195 235 233 167 169 183 182 186 163 152 161 166 161 150 149 143 140 134 142 123 118 120 119 121 120 125 136 144 140 137 127 134 134 142 142 145 137 135 135 131 133 139 146 157 160 154 150 150 156 152 155 156 164 168 183 273 216 212 200 190 204